STARLINK-36080

Last updated on Mon Dec 15 2025 00:02:11 GMT+0000 (Coordinated Universal Time)

1 66801U 25278L 25348.25003472 -.01314895 00000+0 -68283-2 0 9991 2 66801 42.9971 242.7506 0001931 280.3023 127.6263 15.82850058 3207
UTC large
Height (km)
Speed (km/s)
/
Latitude / Longitude
Inclination (degrees)
Orbital Period (minutes)
Azimuth
Elevation
Range (km)
Doppler Factor

Next 0 passes for location: London (51.5072 / 0.1276)

Sorry there are no passes over London.